GLOBALSTAR M027 [+]

Last updated on Fri Nov 22 2019 04:19:47 GMT+0000 (Coordinated Universal Time)

1 25884U 99043B 19324.94697356 -.00000056 00000-0 27104-3 0 9999 2 25884 52.0221 313.0915 0021802 304.7040 55.1699 11.04357162916375
UTC large
Height (km)
Speed (km/s)
/
Latitude / Longitude
Inclination (degrees)
Orbital Period (minutes)
Azimuth
Elevation
Range (km)
Doppler Factor

Next 0 passes for location: London (51.5072 / 0.1276)

Sorry there are no passes over London.
GLOBALSTAR M027 [+]